Regional Weather Roundup
Issued by NWS

Home | Current Version | Previous Version | Text Only | Print | Product List | Glossary On
Versions: 1 2 3 4 5 6 7 8 9 10 11 12 13 14 15 16 17 18 19 20 21 22 23 24 25 26 27 28 29 30 31 32 33 34 35 36 37 38 39 40 41 42 43 44 45 46 47 48 49 50
590
ASUS44 KJAN 232103
RWRMS

MISSISSIPPI HOURLY WEATHER ROUNDUP
NATIONAL WEATHER SERVICE JACKSON MS
400 PM CDT WED JUL 23 2014

NOTE: "FAIR: INDICATES FEW OR NO CLOUDS BELOW 12,000 FEET WITH NO
SIGNIFICANT WEATHER AND/OR OBSTRUCTIONS TO VISIBILITY.

MSZ001>002-007>008-010>013-018>021-025>028-034>036-232200-
NORTHWEST MISSISSIPPI

CITY           SKY/WX    TMP DP  RH WIND       PRES   REMARKS
CLARKSDALE     FAIR      90  75  62 CALM      29.98F HX 100
CLEVELAND      FAIR      89  77  65 CALM      29.96F HX 101
GREENWOOD      SUNNY     88  73  61 SW5       29.96F HX  95
GREENVILLE     MOSUNNY   90  73  57 SE5       29.94F HX  98
GRENADA        MOCLDY    90  72  55 CALM      29.97F HX  96
OLIVE BRANCH   CLOUDY    90  75  62 N7        29.99F HX 100
OXFORD         FAIR      88  70  55 NW3       30.00F HX  92
TUNICA         MOCLDY    90  73  58 SW5       29.98F HX  98
$$

MSZ003>006-009-014>017-022>024-029>033-037>039-232200-
NORTHEAST MISSISSIPPI

CITY           SKY/WX    TMP DP  RH WIND       PRES   REMARKS
BELMONT        FAIR      87  75  67 W6        30.00F HX  96
COLUMBUS AFB   MOSUNNY   90  69  51 SW3       29.98F HX  94
CORINTH        FAIR      82  68  61 N12G25    29.99F
GOLDN TRIANGLE PTSUNNY   90  72  55 W5        29.99F HX  96
STARKVILLE     MOCLDY    86  72  62 S6        29.99F HX  92
TUPELO         MOSUNNY   89  72  56 SW6       29.99F HX  96
$$

MSZ040-058-232200-
CENTRAL MISSISSIPPI

CITY           SKY/WX    TMP DP  RH WIND       PRES   REMARKS
JACKSON INTL   PTSUNNY   90  71  53 NE3       29.98F HX  96
JACKSON HAWKNS PTSUNNY   88  72  58 VRB3      29.99F HX  94
MERIDIAN KEY   MOSUNNY   87  71  58 S14       29.99F HX  93
MERIDIAN NAS   MOSUNNY   89  70  53 S7        29.99F HX  94
RAYMOND        FAIR      88  82  84 CALM      30.00F HX 108
VICKSBURG      SUNNY     88  73  61 CALM      29.98F HX  95
$$

MSZ059>079-232200-
SOUTH MISSISSIPPI

CITY           SKY/WX    TMP DP  RH WIND       PRES   REMARKS
BROOKHAVEN     FAIR      88  72  58 E6        30.02F HX  94
COLUMBIA       FAIR      90  72  55 VRB3      29.99F HX  96
HATTIESBURG    RAIN      77  72  84 SW14      30.02R
MCCOMB         SUNNY     87  68  52 SW6       30.00F HX  90
NATCHEZ        PTSUNNY   88  75  66 S3        30.00F HX  97
PINE BELT      MOSUNNY   88  70  55 SE7       30.03S HX  92
$$

MSZ080>082-232200-
COASTAL MISSISSIPPI

CITY           SKY/WX    TMP DP  RH WIND       PRES   REMARKS
BAY ST LOUIS   MOSUNNY  N/A N/A N/A CALM      30.00F
BILOXI         PTSUNNY   82  73  75 S3        30.01F
PASCAGOULA     CLOUDY    83  73  72 VRB3      30.01F
GULFPORT       PTSUNNY   87  71  58 S7        30.00F HX  93
$$



USA.gov is the U.S. government's official web portal to all federal, state and local government web resources and services.